Regional Weather Roundup
Issued by NWS

Home | Current Version | Previous Version | Graphics & Text | Print | Product List | Glossary On
Versions: 1 2 3 4 5 6 7 8 9 10 11 12 13 14 15 16 17 18 19 20 21 22 23 24 25 26 27 28 29 30 31 32 33 34 35 36 37 38 39 40 41 42 43 44 45 46 47 48 49 50
562
ASUS44 KMEG 210610
RWRTN
TENNESSEE HOURLY STATE WEATHER ROUNDUP
NATIONAL WEATHER SERVICE MEMPHIS TN
1200 AM CST TUE FEB 21 2017

TNZ002-004-019-021-049-052-054-088>092-210700-
WEST TENNESSEE

CITY           SKY/WX    TMP DP  RH WIND       PRES   REMARKS
MEMPHIS INTL   CLOUDY    69  50  50 SE9G20    29.87F
NWS MEMPHIS      N/A     68 N/A N/A MISG        N/A
JACKSON        CLOUDY    63  49  60 E3        29.95S
UNION CITY     CLEAR     61  46  59 CALM      29.94S
PARIS          CLEAR     57  45  62 SE7       29.97S
HUNTINGDON     MOCLDY    61  48  63 SE5       29.96S
$$

TNZ008-025-027-028-033-062-065-066-210700-
NORTH MIDDLE TENNESSEE

CITY           SKY/WX    TMP DP  RH WIND       PRES   REMARKS
NASHVILLE      PTCLDY    59  44  57 SE7       30.02F
PORTLAND       MOCLDY    61  45  55 S7        30.02F
CLARKSVILLE    PTCLDY    58  45  62 SE5       29.99F
SMYRNA         CLOUDY    51  45  79 CALM      30.03F
COOKEVILLE     PTCLDY    59  46  63 SE7       30.06S
GALLATIN       PTCLDY    55  45  67 CALM      30.05F
CROSSVILLE     CLOUDY    54  44  69 S3        30.11S
$$

TNZ061-075-076-078-094-096-097-210700-
SOUTH MIDDLE TENNESSEE

CITY           SKY/WX    TMP DP  RH WIND       PRES   REMARKS
FAYETTEVILLE   PTCLDY    59  48  67 SE6       30.03F HAZE
TULLAHOMA      CLEAR     61  43  51 SE7       30.05F
MCMINNVILLE    CLEAR     61  46  59 E5        30.06F
COLUMBIA       CLEAR     55  54  94 CALM      29.99S
SHELBYVILLE    CLEAR     63  48  59 SE6       30.04F
$$

TNZ017-018-042-046-047-210700-
NORTHEAST TENNESSEE

CITY           SKY/WX    TMP DP  RH WIND       PRES   REMARKS
TRI CITIES     PTCLDY    42  37  82 CALM      30.14S
ELIZABETHTON   PTCLDY    50  36  57 E6        30.15R
$$

TNZ012-013-036-069-073-074-210700-
CENTRAL EAST TENNESSEE

CITY           SKY/WX    TMP DP  RH WIND       PRES   REMARKS
KNOXVILLE      CLOUDY    53  44  71 CALM      30.10S
OAK RIDGE      CLOUDY    50  45  83 CALM      30.12S
GATLINBURG     CLEAR     45  41  87 CALM      30.11S
MORRISTOWN     CLEAR     54  45  71 CALM      30.11S
JACKSBORO      CLEAR     46  45  93 CALM      30.13F
$$

TNZ083-085-099-210700-
SOUTHEAST TENNESSEE

CITY           SKY/WX    TMP DP  RH WIND       PRES   REMARKS
CHATTANOOGA    PTCLDY    52  48  86 CALM      30.09F
$$

SKY/WX REPORTED AS FAIR MEANS FEW OR NO CLOUDS BELOW
12 THOUSAND FEET.





USA.gov is the U.S. government's official web portal to all federal, state and local government web resources and services.